Flag for U.S.A. Weather past 2 weeks in Pensacola, Florida, U.S.A.

Now
33 °F

Clear.


Feels Like: 23 °F
Forecast: 32 / 55 °F
Wind: 16 mph from North

Location: Pensacola Regional Airport

Current Time: Mar 6, 2015 at 2:28:19 AM

Latest Report: Mar 6, 2015 at 1:53 AM


Visibility: 10 mi

Pressure: 30.35 "Hg

Humidity: 72%

Dew point: 25 °F

Location of PensacolaLocation

Historic Weather in Pensacola — Graph

°F

Pensacola temperature yesterday

Maximum temperature yesterday: 69 °F (at 12:53 AM)
Minimum temperature yesterday: 36 °F (at 11:53 PM)
Average temperature yesterday: 54 °F

Past Weeks' High & Low Weather Summary

 TemperatureHumidityPressure
High76 °F (Mar 4, 1:53 PM)100% (Feb 22, 11:01 PM)30.48 "Hg (Feb 22, 11:01 PM)
Low28 °F (Feb 19, 5:53 AM)18% (Feb 19, 2:53 PM)29.57 "Hg (Feb 25, 5:53 PM)
Average52 °F78%30.18 "Hg
* Reported Feb 19 12:53 AM — Mar 6 12:53 AM, Pensacola, Weather by CustomWeather, © 2015

Note: Actual official high and low records may vary slightly from our data, if they occured in-between our weather recording intervals... More about our weather records

Advertising

Pensacola weather history for previous 24 hours

 ConditionsComfort  
Time TempWeatherWind HumidityBarometerVisibility
12:53 AM
Fri, Mar 6
35 °FPassing clouds.13 mph70%30.36 "Hg10 mi
11:53 PM
Thu, Mar 5
36 °FPassing clouds.16 mph73%30.35 "Hg10 mi
10:53 PM37 °FPassing clouds.16 mph70%30.35 "Hg10 mi
9:53 PM37 °FPassing clouds.16 mph73%30.35 "Hg10 mi
8:53 PM38 °FOvercast.14 mph73%30.34 "Hg10 mi
7:53 PM38 °FOvercast.15 mph76%30.32 "Hg10 mi
6:53 PM39 °FPassing clouds.17 mph73%30.29 "Hg10 mi
5:53 PM39 °FPassing clouds.17 mph76%30.25 "Hg10 mi
4:53 PM41 °FOvercast.20 mph80%30.23 "Hg10 mi
3:53 PM45 °FOvercast.22 mph76%30.18 "Hg10 mi
2:53 PM51 °FSunny.22 mph66%30.14 "Hg10 mi
1:53 PM57 °FSunny.22 mph60%30.11 "Hg10 mi
12:53 PM60 °FScattered clouds.14 mph60%30.10 "Hg10 mi
11:53 AM55 °FPassing clouds.14 mph72%30.11 "Hg10 mi
10:53 AM49 °FMostly cloudy.17 mph90%30.11 "Hg10 mi
9:53 AM50 °FRain. Fog.22 mph93%30.11 "Hg5 mi
8:59 AM69 °FLight rain. Fog.7 mph100%30.01 "Hg3 mi
7:53 AM69 °FFog.12 mph96%30.00 "Hg0 mi
6:53 AM68 °FFog.10 mph100%30.00 "Hg0 mi
5:53 AM67 °FFog.13 mph100%29.96 "Hg0 mi
4:53 AM68 °FFog.13 mph100%29.95 "Hg1 mi
3:53 AM69 °FFog.14 mph96%29.93 "Hg4 mi
2:53 AM69 °FFog.13 mph96%29.95 "Hg4 mi
Weather by CustomWeather, © 2015

See weather overviewHow to use our weather pages